Starlink 31406

operational
NORAD ID: 59017 Int'l Des: 2024-036 Owner: SPXS Country: US Constellation: starlink
LEOCIRCULAR

About Starlink 31406

Description loading...

Live Position

Loading 3D Globe...

Upcoming Passes

Altitude History

Altitude vs Time

uPlot chart will show altitude changes over time

Two-Line Element Set

1 59017U 24036V 26035.80259265 .00000563 00000-0 31146-4 0 9993
2 59017 53.1592 217.7109 0001173 97.1939 262.9195 15.30194606110478
Epoch: Feb 4, 2026 • Age: 15 hours

Current Status

Altitude 478.3 km
Velocity 7.63 km/s
Sub-Earth Point 40.92°N, 70.36°E
Launch Date Feb 23, 2024
Age 1.9 years
Type internet

Technical Details

Classification Payload
Mass 730.00 kg
Dry Mass 700.00 kg
Total Mass 730.00 kg
Length 0.30 m
Diameter 4.10 m
Span 29.00 m
Shape Box + pan
Manufacturer SPXS
Bus Type Starlink V2M
Phase Status In Orbit
Owner/State SPXS/US

Large Constellations

Loading constellations...